Year,Month,Day,Hour,Minute,Value (Times are PST for temperature in C)
2015,09,22,00,00,4.90
2015,09,22,00,01,4.90
2015,09,22,00,02,4.90
2015,09,22,00,03,4.90
2015,09,22,00,04,5.00
2015,09,22,00,05,5.00
2015,09,22,00,06,5.00
2015,09,22,00,07,5.00
2015,09,22,00,08,5.00
2015,09,22,00,09,5.00
2015,09,22,00,10,5.00
2015,09,22,00,11,5.00
2015,09,22,00,12,5.00
2015,09,22,00,13,5.00
2015,09,22,00,14,5.00
2015,09,22,00,15,5.00
2015,09,22,00,16,5.10
2015,09,22,00,17,5.10
2015,09,22,00,18,5.10
2015,09,22,00,19,5.10
2015,09,22,00,20,5.10
2015,09,22,00,21,5.10
2015,09,22,00,22,5.10
2015,09,22,00,23,5.10
2015,09,22,00,24,5.10
2015,09,22,00,25,5.20
2015,09,22,00,26,5.20
2015,09,22,00,27,5.20
2015,09,22,00,28,5.20
2015,09,22,00,29,5.30
2015,09,22,00,30,5.30
2015,09,22,00,31,5.30
2015,09,22,00,32,5.40
2015,09,22,00,33,5.40
2015,09,22,00,34,5.40
2015,09,22,00,35,5.40
2015,09,22,00,36,5.50
2015,09,22,00,37,5.50
2015,09,22,00,38,5.50
2015,09,22,00,39,5.60
2015,09,22,00,40,5.60
2015,09,22,00,41,5.60
2015,09,22,00,42,5.70
2015,09,22,00,43,5.70
2015,09,22,00,44,5.70
2015,09,22,00,45,5.80
2015,09,22,00,46,5.80
2015,09,22,00,47,5.90
2015,09,22,00,48,5.90
2015,09,22,00,49,6.00
2015,09,22,00,50,6.00
2015,09,22,00,51,6.10
2015,09,22,00,52,6.20
2015,09,22,00,53,6.20
2015,09,22,00,54,6.30
2015,09,22,00,55,6.30
2015,09,22,00,56,6.40
2015,09,22,00,57,6.40
2015,09,22,00,58,6.50
2015,09,22,00,59,6.50
2015,09,22,01,00,6.60
2015,09,22,01,01,6.70
2015,09,22,01,02,6.70
2015,09,22,01,03,6.80
2015,09,22,01,04,6.80
2015,09,22,01,05,6.90
2015,09,22,01,06,6.90
2015,09,22,01,07,7.00
2015,09,22,01,08,7.00
2015,09,22,01,09,7.10
2015,09,22,01,10,7.10
2015,09,22,01,11,7.20
2015,09,22,01,12,7.20
2015,09,22,01,13,7.20
2015,09,22,01,14,7.20
2015,09,22,01,15,7.20
2015,09,22,01,16,7.30
2015,09,22,01,17,7.30
2015,09,22,01,18,7.30
2015,09,22,01,19,7.40
2015,09,22,01,20,7.40
2015,09,22,01,21,7.40
2015,09,22,01,22,7.50
2015,09,22,01,23,7.50
2015,09,22,01,24,7.60
2015,09,22,01,25,7.60
2015,09,22,01,26,7.70
2015,09,22,01,27,7.70
2015,09,22,01,28,7.80
2015,09,22,01,29,7.80
2015,09,22,01,30,7.90
2015,09,22,01,31,7.90
2015,09,22,01,32,8.00
2015,09,22,01,33,8.00
2015,09,22,01,34,8.10
2015,09,22,01,35,8.10
2015,09,22,01,36,8.10
2015,09,22,01,37,8.20
2015,09,22,01,38,8.30
2015,09,22,01,39,8.30
2015,09,22,01,40,8.40
2015,09,22,01,41,8.50
2015,09,22,01,42,8.50
2015,09,22,01,43,8.60
2015,09,22,01,44,8.70
2015,09,22,01,45,8.80
2015,09,22,01,46,8.90
2015,09,22,01,47,8.90
2015,09,22,01,48,9.00
2015,09,22,01,49,9.00
2015,09,22,01,50,9.00
2015,09,22,01,51,9.10
2015,09,22,01,52,9.10
2015,09,22,01,53,9.20
2015,09,22,01,54,9.20
2015,09,22,01,55,9.30
2015,09,22,01,56,9.30
2015,09,22,01,57,9.40
2015,09,22,01,58,9.50
2015,09,22,01,59,9.60
2015,09,22,02,00,9.60
2015,09,22,02,01,9.70
2015,09,22,02,02,9.70
2015,09,22,02,03,9.80
2015,09,22,02,04,9.80
2015,09,22,02,05,9.80
2015,09,22,02,06,9.80
2015,09,22,02,07,9.90
2015,09,22,02,08,9.90
2015,09,22,02,09,10.00
2015,09,22,02,10,10.00
2015,09,22,02,11,10.10
2015,09,22,02,12,10.10
2015,09,22,02,13,10.10
2015,09,22,02,14,10.10
2015,09,22,02,15,10.20
2015,09,22,02,16,10.20
2015,09,22,02,17,10.30
2015,09,22,02,18,10.30
2015,09,22,02,19,10.40
2015,09,22,02,20,10.50
2015,09,22,02,21,10.50
2015,09,22,02,22,10.50
2015,09,22,02,23,10.60
2015,09,22,02,24,10.60
2015,09,22,02,25,10.60
2015,09,22,02,26,10.60
2015,09,22,02,27,10.60
2015,09,22,02,28,10.60
2015,09,22,02,29,10.60
2015,09,22,02,30,10.70
2015,09,22,02,31,10.70
2015,09,22,02,32,10.70
2015,09,22,02,33,10.70
2015,09,22,02,34,10.70
2015,09,22,02,35,10.70
2015,09,22,02,36,10.60
2015,09,22,02,37,10.60
2015,09,22,02,38,10.60
2015,09,22,02,39,10.60
2015,09,22,02,40,10.60
2015,09,22,02,41,10.70
2015,09,22,02,42,10.70
2015,09,22,02,43,10.70
2015,09,22,02,44,10.70
2015,09,22,02,45,10.70
2015,09,22,02,46,10.70
2015,09,22,02,47,10.70
2015,09,22,02,48,10.70
2015,09,22,02,49,10.80
2015,09,22,02,50,10.80
2015,09,22,02,51,10.80
2015,09,22,02,52,10.90
2015,09,22,02,53,10.90
2015,09,22,02,54,10.90
2015,09,22,02,55,11.00
2015,09,22,02,56,11.10
2015,09,22,02,57,11.10
2015,09,22,02,58,11.10
2015,09,22,02,59,11.10
2015,09,22,03,00,11.20
2015,09,22,03,01,11.20
2015,09,22,03,02,11.30
2015,09,22,10,03,11.30
2015,09,22,10,04,11.30
2015,09,22,10,05,11.30
2015,09,22,10,06,11.30
2015,09,22,10,07,11.30
2015,09,22,10,08,11.40
2015,09,22,10,09,11.40
2015,09,22,10,10,11.40
2015,09,22,10,11,11.40
2015,09,22,10,12,11.50
2015,09,22,10,13,11.50
2015,09,22,10,14,11.60
2015,09,22,10,15,11.60
2015,09,22,10,16,11.60
2015,09,22,10,17,11.60
2015,09,22,10,18,11.60
2015,09,22,10,19,11.60
2015,09,22,10,20,11.70
2015,09,22,10,21,11.70
2015,09,22,10,22,11.70
2015,09,22,10,23,11.70
2015,09,22,10,24,11.70
2015,09,22,10,25,11.80
2015,09,22,10,26,11.80
2015,09,22,10,27,11.80
2015,09,22,10,28,11.80
2015,09,22,10,29,11.90
2015,09,22,10,30,11.90
2015,09,22,10,31,12.00
2015,09,22,10,32,12.00
2015,09,22,10,33,12.10
2015,09,22,10,34,12.10
2015,09,22,10,35,12.10
2015,09,22,10,36,12.10
2015,09,22,10,37,12.10
2015,09,22,10,38,12.10
2015,09,22,10,39,12.10
2015,09,22,10,40,12.20
2015,09,22,10,41,12.20
2015,09,22,10,42,12.20
2015,09,22,10,43,12.20
2015,09,22,10,44,12.20
2015,09,22,10,45,12.20
2015,09,22,10,46,12.20
2015,09,22,10,47,12.20
2015,09,22,10,48,12.30
2015,09,22,10,49,12.30
2015,09,22,10,50,12.30
2015,09,22,10,51,12.30
2015,09,22,10,52,12.30
2015,09,22,10,53,12.30
2015,09,22,10,54,12.40
2015,09,22,10,55,12.40
2015,09,22,10,56,12.40
2015,09,22,10,57,12.50
2015,09,22,10,58,12.50
2015,09,22,10,59,12.60
2015,09,22,11,00,12.60
2015,09,22,11,01,12.60
2015,09,22,11,02,12.70
2015,09,22,11,03,12.70
2015,09,22,11,04,12.70
2015,09,22,11,05,12.70
2015,09,22,11,06,12.70
2015,09,22,11,07,12.70
2015,09,22,11,08,12.70
2015,09,22,11,09,12.70
2015,09,22,11,10,12.70
2015,09,22,11,11,12.70
2015,09,22,11,12,12.60
2015,09,22,11,13,12.60
2015,09,22,11,14,12.60
2015,09,22,11,15,12.60
2015,09,22,11,16,12.50
2015,09,22,11,17,12.50
2015,09,22,11,18,12.50
2015,09,22,11,19,12.50
2015,09,22,11,20,12.50
2015,09,22,11,21,12.50
2015,09,22,11,22,12.40
2015,09,22,11,23,12.50
2015,09,22,11,24,12.50
2015,09,22,11,25,12.50
2015,09,22,11,26,12.50
2015,09,22,11,27,12.50
2015,09,22,11,28,12.50
2015,09,22,11,29,12.60
2015,09,22,11,30,12.60
2015,09,22,11,31,12.60
2015,09,22,11,32,12.60
2015,09,22,11,33,12.60
2015,09,22,11,34,12.60
2015,09,22,11,35,12.60
2015,09,22,11,36,12.60
2015,09,22,11,37,12.60
2015,09,22,11,38,12.60
2015,09,22,11,39,12.60
2015,09,22,11,40,12.60
2015,09,22,11,41,12.60
2015,09,22,11,42,12.60
2015,09,22,11,43,12.60
2015,09,22,11,44,12.70
2015,09,22,11,45,12.70
2015,09,22,11,46,12.80
2015,09,22,11,47,12.80
2015,09,22,11,48,12.90
2015,09,22,11,49,12.90
2015,09,22,11,50,12.90
2015,09,22,11,51,13.00
2015,09,22,11,52,13.10
2015,09,22,11,53,13.10
2015,09,22,11,54,13.10
2015,09,22,11,55,13.10
2015,09,22,11,56,13.10
2015,09,22,11,57,13.10
2015,09,22,11,58,13.20
2015,09,22,11,59,13.20
2015,09,22,12,00,13.20
2015,09,22,12,01,13.30
2015,09,22,12,02,13.40
2015,09,22,12,03,13.40
2015,09,22,12,04,13.50
2015,09,22,12,05,13.60
2015,09,22,12,06,13.70
2015,09,22,12,07,13.70
2015,09,22,12,08,13.80
2015,09,22,12,09,13.80
2015,09,22,12,10,13.80
2015,09,22,12,11,13.80
2015,09,22,12,12,13.80
2015,09,22,12,13,13.80
2015,09,22,12,14,13.70
2015,09,22,12,15,13.70
2015,09,22,12,16,13.70
2015,09,22,12,17,13.70
2015,09,22,12,18,13.60
2015,09,22,12,19,13.60
2015,09,22,12,20,13.60
2015,09,22,12,21,13.60
2015,09,22,12,22,13.60
2015,09,22,12,23,13.60
2015,09,22,12,24,13.60
2015,09,22,12,25,13.60
2015,09,22,12,26,13.60
2015,09,22,12,27,13.60
2015,09,22,12,28,13.60
2015,09,22,12,29,13.60
2015,09,22,12,30,13.60
2015,09,22,12,31,13.60
2015,09,22,12,32,13.60
2015,09,22,12,33,13.60
2015,09,22,12,34,13.60
2015,09,22,12,35,13.60
2015,09,22,12,36,13.60
2015,09,22,12,37,13.60
2015,09,22,12,38,13.60
2015,09,22,12,39,13.70
2015,09,22,12,40,13.70
2015,09,22,12,41,13.80
2015,09,22,12,42,13.80
2015,09,22,12,43,13.90
2015,09,22,12,44,13.90
2015,09,22,12,45,13.90
2015,09,22,12,46,13.90
2015,09,22,12,47,13.90
2015,09,22,12,48,13.90
2015,09,22,12,49,13.90
2015,09,22,12,50,13.80
2015,09,22,12,51,13.80
2015,09,22,12,52,13.80
2015,09,22,12,53,13.80
2015,09,22,12,54,13.80
2015,09,22,12,55,13.80
2015,09,22,12,56,13.80
2015,09,22,12,57,13.80
2015,09,22,12,58,13.80
2015,09,22,12,59,13.90
2015,09,22,13,00,13.90
2015,09,22,13,01,13.90
2015,09,22,13,02,13.90
2015,09,22,13,03,14.00
2015,09,22,13,04,14.00
2015,09,22,13,05,14.00
2015,09,22,13,06,14.00
2015,09,22,13,07,14.10
2015,09,22,13,08,14.10
2015,09,22,13,09,14.10
2015,09,22,13,10,14.20
2015,09,22,13,11,14.20
2015,09,22,13,12,14.20
2015,09,22,13,13,14.20
2015,09,22,13,14,14.20
2015,09,22,13,15,14.10
2015,09,22,13,16,14.10
2015,09,22,13,17,14.10
2015,09,22,13,18,14.10
2015,09,22,13,19,14.10
2015,09,22,13,20,14.10
2015,09,22,13,21,14.10
2015,09,22,13,22,14.10
2015,09,22,13,23,14.10
2015,09,22,13,24,14.10
2015,09,22,13,25,14.10
2015,09,22,13,26,14.10
2015,09,22,13,27,14.10
2015,09,22,13,28,14.10
2015,09,22,13,29,14.10
2015,09,22,13,30,14.10
2015,09,22,13,31,14.10
2015,09,22,13,32,14.10
2015,09,22,13,33,14.10
2015,09,22,13,34,14.10
2015,09,22,13,35,14.10
2015,09,22,13,36,14.10
2015,09,22,13,37,14.10
2015,09,22,13,38,14.10
2015,09,22,13,39,14.10
2015,09,22,13,40,14.10
2015,09,22,13,41,14.10
2015,09,22,13,42,14.10
2015,09,22,13,43,14.10
2015,09,22,13,44,14.20
2015,09,22,13,45,14.20
2015,09,22,13,46,14.20
2015,09,22,13,47,14.20
2015,09,22,13,48,14.30
2015,09,22,13,49,14.30
2015,09,22,13,50,14.30
2015,09,22,13,51,14.20
2015,09,22,13,52,14.20
2015,09,22,13,53,14.20
2015,09,22,13,54,14.20
2015,09,22,13,55,14.20
2015,09,22,13,56,14.30
2015,09,22,13,57,14.30
2015,09,22,13,58,14.30
2015,09,22,13,59,14.30
2015,09,22,14,00,14.30
2015,09,22,14,01,14.30
2015,09,22,14,02,14.30
2015,09,22,14,03,14.30
2015,09,22,14,04,14.30
2015,09,22,14,05,14.30
2015,09,22,14,06,14.30
2015,09,22,14,07,14.40
2015,09,22,14,08,14.40
2015,09,22,14,09,14.40
2015,09,22,14,10,14.40
2015,09,22,14,11,14.40
2015,09,22,14,12,14.40
2015,09,22,14,13,14.40
2015,09,22,14,14,14.30
2015,09,22,14,15,14.40
2015,09,22,14,16,14.40
2015,09,22,14,17,14.30
2015,09,22,14,18,14.30
2015,09,22,14,19,14.30
2015,09,22,14,20,14.30
2015,09,22,14,21,14.30
2015,09,22,14,22,14.30
2015,09,22,14,23,14.30
2015,09,22,14,24,14.30
2015,09,22,14,25,14.40
2015,09,22,14,26,14.40
2015,09,22,14,27,14.30
2015,09,22,14,28,14.30
2015,09,22,14,29,14.30
2015,09,22,14,30,14.30
2015,09,22,14,31,14.30
2015,09,22,14,32,14.30
2015,09,22,14,33,14.20
2015,09,22,14,34,14.20
2015,09,22,14,35,14.20
2015,09,22,14,36,14.30
2015,09,22,14,37,14.30
2015,09,22,14,38,14.30
2015,09,22,14,39,14.30
2015,09,22,14,40,14.30
2015,09,22,14,41,14.30
2015,09,22,14,42,14.30
2015,09,22,14,43,14.30
2015,09,22,14,44,14.30
2015,09,22,14,45,14.30
2015,09,22,14,46,14.30
2015,09,22,14,47,14.30
2015,09,22,14,48,14.30
2015,09,22,14,49,14.30
2015,09,22,14,50,14.40
2015,09,22,14,51,14.40
2015,09,22,14,52,14.40
2015,09,22,14,53,14.40
2015,09,22,14,54,14.40
2015,09,22,14,55,14.40
2015,09,22,14,56,14.40
2015,09,22,14,57,14.40
2015,09,22,14,58,14.30
2015,09,22,14,59,14.30
2015,09,22,15,00,14.30
2015,09,22,15,01,14.30
2015,09,22,15,02,14.30
2015,09,22,15,03,14.30
2015,09,22,15,04,14.30
2015,09,22,15,05,14.30
2015,09,22,15,06,14.40
2015,09,22,15,07,14.40
2015,09,22,15,08,14.40
2015,09,22,15,09,14.40
2015,09,22,15,10,14.50
2015,09,22,15,11,14.50
2015,09,22,15,12,14.50
2015,09,22,15,13,14.50
2015,09,22,15,14,14.50
2015,09,22,15,15,14.50
2015,09,22,15,16,14.50
2015,09,22,15,17,14.50
2015,09,22,15,18,14.50
2015,09,22,15,19,14.50
2015,09,22,15,20,14.50
2015,09,22,15,21,14.40
2015,09,22,15,22,14.40
2015,09,22,15,23,14.50
2015,09,22,15,24,14.50
2015,09,22,15,25,14.50
2015,09,22,15,26,14.50
2015,09,22,15,27,14.50
2015,09,22,15,28,14.60
2015,09,22,15,29,14.60
2015,09,22,15,30,14.60
2015,09,22,15,31,14.60
2015,09,22,15,32,14.70
2015,09,22,15,33,14.70
2015,09,22,15,34,14.70
2015,09,22,15,35,14.60
2015,09,22,15,36,14.60
2015,09,22,15,37,14.60
2015,09,22,15,38,14.60
2015,09,22,15,39,14.60
2015,09,22,15,40,14.50
2015,09,22,15,41,14.50
2015,09,22,15,42,14.50
2015,09,22,15,43,14.50
2015,09,22,15,44,14.50
2015,09,22,15,45,14.50
2015,09,22,15,46,14.60
2015,09,22,15,47,14.60
2015,09,22,15,48,14.60
2015,09,22,15,49,14.60
2015,09,22,15,50,14.50
2015,09,22,15,51,14.50
2015,09,22,15,52,14.50
2015,09,22,15,53,14.50
2015,09,22,15,54,14.50
2015,09,22,15,55,14.40
2015,09,22,15,56,14.40
2015,09,22,15,57,14.40
2015,09,22,15,58,14.30
2015,09,22,15,59,14.30
2015,09,22,16,00,14.30
2015,09,22,16,01,14.30
2015,09,22,16,02,14.30
2015,09,22,16,03,14.30
2015,09,22,16,04,14.40
2015,09,22,16,05,14.40
2015,09,22,16,06,14.40
2015,09,22,16,07,14.40
2015,09,22,16,08,14.50
2015,09,22,16,09,14.50
2015,09,22,16,10,14.60
2015,09,22,16,11,14.60
2015,09,22,16,12,14.60
2015,09,22,16,13,14.60
2015,09,22,16,14,14.70
2015,09,22,16,15,14.70
2015,09,22,16,16,14.70
2015,09,22,16,17,14.70
2015,09,22,16,18,14.70
2015,09,22,16,19,14.70
2015,09,22,16,20,14.70
2015,09,22,16,21,14.70
2015,09,22,16,22,14.70
2015,09,22,16,23,14.70
2015,09,22,16,24,14.70
2015,09,22,16,25,14.80
2015,09,22,16,26,14.80
2015,09,22,16,27,14.80
2015,09,22,16,28,14.80
2015,09,22,16,29,14.80
2015,09,22,16,30,14.70
2015,09,22,16,31,14.70
2015,09,22,16,32,14.70
2015,09,22,16,33,14.70
2015,09,22,16,34,14.70
2015,09,22,16,35,14.60
2015,09,22,16,36,14.60
2015,09,22,16,37,14.50
2015,09,22,16,38,14.50
2015,09,22,16,39,14.50
2015,09,22,16,40,14.50
2015,09,22,16,41,14.40
2015,09,22,16,42,14.40
2015,09,22,16,43,14.40
2015,09,22,16,44,14.40
2015,09,22,16,45,14.40
2015,09,22,16,46,14.30
2015,09,22,16,47,14.30
2015,09,22,16,48,14.30
2015,09,22,16,49,14.30
2015,09,22,16,50,14.30
2015,09,22,16,51,14.20
2015,09,22,16,52,14.20
2015,09,22,16,53,14.20
2015,09,22,16,54,14.20
2015,09,22,16,55,14.20
2015,09,22,16,56,14.20
2015,09,22,16,57,14.20
2015,09,22,16,58,14.20
2015,09,22,16,59,14.20
2015,09,22,17,00,14.20
2015,09,22,17,01,14.20
2015,09,22,17,02,14.20
2015,09,22,17,03,14.20
2015,09,22,17,04,14.20
2015,09,22,17,05,14.30
2015,09,22,17,06,14.30
2015,09,22,17,07,14.30
2015,09,22,17,08,14.30
2015,09,22,17,09,14.30
2015,09,22,17,10,14.30
2015,09,22,17,11,14.30
2015,09,22,17,12,14.30
2015,09,22,17,13,14.40
2015,09,22,17,14,14.40
2015,09,22,17,15,14.40
2015,09,22,17,16,14.30
2015,09,22,17,17,14.30
2015,09,22,17,18,14.30
2015,09,22,17,19,14.30
2015,09,22,17,20,14.30
2015,09,22,17,21,14.30
2015,09,22,17,22,14.30
2015,09,22,17,23,14.30
2015,09,22,17,24,14.30
2015,09,22,17,25,14.30
2015,09,22,17,26,14.30
2015,09,22,17,27,14.30
2015,09,22,17,28,14.30
2015,09,22,17,29,14.30
2015,09,22,17,30,14.30
2015,09,22,17,31,14.30
2015,09,22,17,32,14.30
2015,09,22,17,33,14.30
2015,09,22,17,34,14.30
2015,09,22,17,35,14.30
2015,09,22,17,36,14.30
2015,09,22,17,37,14.20
2015,09,22,17,38,14.20
2015,09,22,17,39,14.20
2015,09,22,17,40,14.20
2015,09,22,17,41,14.20
2015,09,22,17,42,14.20
2015,09,22,17,43,14.20
2015,09,22,17,44,14.20
2015,09,22,17,45,14.20
2015,09,22,17,46,14.20
2015,09,22,17,47,14.20
2015,09,22,17,48,14.20
2015,09,22,17,49,14.20
2015,09,22,17,50,14.20
2015,09,22,17,51,14.20
2015,09,22,17,52,14.20
2015,09,22,17,53,14.20
2015,09,22,17,54,14.20
2015,09,22,17,55,14.20
2015,09,22,17,56,14.20
2015,09,22,17,57,14.20
2015,09,22,17,58,14.20
2015,09,22,17,59,14.20
2015,09,22,18,00,14.30
2015,09,22,18,01,14.30
2015,09,22,18,02,14.30
2015,09,22,18,03,14.30
2015,09,22,18,04,14.40
2015,09,22,18,05,14.40
2015,09,22,18,06,14.40
2015,09,22,18,07,14.40
2015,09,22,18,08,14.40
2015,09,22,18,09,14.40
2015,09,22,18,10,14.40
2015,09,22,18,11,14.40
2015,09,22,18,12,14.40
2015,09,22,18,13,14.40
2015,09,22,18,14,14.50
2015,09,22,18,15,14.50
2015,09,22,18,16,14.50
2015,09,22,18,17,14.40
2015,09,22,18,18,14.50
2015,09,22,18,19,14.50
2015,09,22,18,20,14.50
2015,09,22,18,21,14.60
2015,09,22,18,22,14.60
2015,09,22,18,23,14.60
2015,09,22,18,24,14.60
2015,09,22,18,25,14.60
2015,09,22,18,26,14.50
2015,09,22,18,27,14.50
2015,09,22,18,28,14.50
2015,09,22,18,29,14.60
2015,09,22,18,30,14.50
2015,09,22,18,31,14.50
2015,09,22,18,32,14.50
2015,09,22,18,33,14.40
2015,09,22,18,34,14.40
2015,09,22,18,35,14.40
2015,09,22,18,36,14.40
2015,09,22,18,37,14.40
2015,09,22,18,38,14.40
2015,09,22,18,39,14.50
2015,09,22,18,40,14.50
2015,09,22,18,41,14.40
2015,09,22,18,42,14.40
2015,09,22,18,43,14.40
2015,09,22,18,44,14.40
2015,09,22,18,45,14.40
2015,09,22,18,46,14.30
2015,09,22,18,47,14.30
2015,09,22,18,48,14.30
2015,09,22,18,49,14.30
2015,09,22,18,50,14.30
2015,09,22,18,51,14.20
2015,09,22,18,52,14.20
2015,09,22,18,53,14.20
2015,09,22,18,54,14.10
2015,09,22,18,55,14.10
2015,09,22,18,56,14.10
2015,09,22,18,57,14.10
2015,09,22,18,58,14.10
2015,09,22,18,59,14.00
2015,09,22,19,00,14.00
2015,09,22,19,01,14.00
2015,09,22,19,02,14.00
2015,09,22,19,03,13.90
2015,09,22,19,04,13.90
2015,09,22,19,05,13.90
2015,09,22,19,06,13.80
2015,09,22,19,07,13.80
2015,09,22,19,08,13.80
2015,09,22,19,09,13.80
2015,09,22,19,10,13.70
2015,09,22,19,11,13.70
2015,09,22,19,12,13.70
2015,09,22,19,13,13.70
2015,09,22,19,14,13.60
2015,09,22,19,15,13.60
2015,09,22,19,16,13.50
2015,09,22,19,17,13.50
2015,09,22,19,18,13.50
2015,09,22,19,19,13.40
2015,09,22,19,20,13.40
2015,09,22,19,21,13.40
2015,09,22,19,22,13.40
2015,09,22,19,23,13.40
2015,09,22,19,24,13.40
2015,09,22,19,25,13.40
2015,09,22,19,26,13.40
2015,09,22,19,27,13.50
2015,09,22,19,28,13.50
2015,09,22,19,29,13.50
2015,09,22,19,30,13.50
2015,09,22,19,31,13.40
2015,09,22,19,32,13.40
2015,09,22,19,33,13.40
2015,09,22,19,34,13.40
2015,09,22,19,35,13.40
2015,09,22,19,36,13.40
2015,09,22,19,37,13.40
2015,09,22,19,38,13.40
2015,09,22,19,39,13.40
2015,09,22,19,40,13.30
2015,09,22,19,41,13.30
2015,09,22,19,42,13.30
2015,09,22,19,43,13.30
2015,09,22,19,44,13.30
2015,09,22,19,45,13.30
2015,09,22,19,46,13.30
2015,09,22,19,47,13.30
2015,09,22,19,48,13.30
2015,09,22,19,49,13.30
2015,09,22,19,50,13.30
2015,09,22,19,51,13.30
2015,09,22,19,52,13.30
2015,09,22,19,53,13.30
2015,09,22,19,54,13.30
2015,09,22,19,55,13.30
2015,09,22,19,56,13.30
2015,09,22,19,57,13.30
2015,09,22,19,58,13.30
2015,09,22,19,59,13.30
2015,09,22,20,00,13.40
2015,09,22,20,01,13.40
2015,09,22,20,02,13.40
2015,09,22,20,03,13.40
2015,09,22,20,04,13.40
2015,09,22,20,05,13.40
2015,09,22,20,06,13.40
2015,09,22,20,07,13.40
2015,09,22,20,08,13.50
2015,09,22,20,09,13.50
2015,09,22,20,10,13.50
2015,09,22,20,11,13.50
2015,09,22,20,12,13.50
2015,09,22,20,13,13.50
2015,09,22,20,14,13.50
2015,09,22,20,15,13.50
2015,09,22,20,16,13.50
2015,09,22,20,17,13.50
2015,09,22,20,18,13.40
2015,09,22,20,19,13.40
2015,09,22,20,20,13.40
2015,09,22,20,21,13.30
2015,09,22,20,22,13.30
2015,09,22,20,23,13.30
2015,09,22,20,24,13.30
2015,09,22,20,25,13.30
2015,09,22,20,26,13.30
2015,09,22,20,27,13.30
2015,09,22,20,28,13.20
2015,09,22,20,29,13.20
2015,09,22,20,30,13.20
2015,09,22,20,31,13.20
2015,09,22,20,32,13.20
2015,09,22,20,33,13.20
2015,09,22,20,34,13.20
2015,09,22,20,35,13.10
2015,09,22,20,36,13.10
2015,09,22,20,37,13.10
2015,09,22,20,38,13.10
2015,09,22,20,39,13.00
2015,09,22,20,40,13.00
2015,09,22,20,41,12.90
2015,09,22,20,42,12.90
2015,09,22,20,43,12.80
2015,09,22,20,44,12.80
2015,09,22,20,45,12.80
2015,09,22,20,46,12.80
2015,09,22,20,47,12.70
2015,09,22,20,48,12.70
2015,09,22,20,49,12.70
2015,09,22,20,50,12.70
2015,09,22,20,51,12.70
2015,09,22,20,52,12.60
2015,09,22,20,53,12.60
2015,09,22,20,54,12.60
2015,09,22,20,55,12.60
2015,09,22,20,56,12.50
2015,09,22,20,57,12.50
2015,09,22,20,58,12.40
2015,09,22,20,59,12.40
2015,09,22,21,00,12.40
2015,09,22,21,01,12.40
2015,09,22,21,02,12.30
2015,09,22,21,03,12.30
2015,09,22,21,04,12.30
2015,09,22,21,05,12.30
2015,09,22,21,06,12.30
2015,09,22,21,07,12.30
2015,09,22,21,08,12.20
2015,09,22,21,09,12.20
2015,09,22,21,10,12.20
2015,09,22,21,11,12.20
2015,09,22,21,12,12.20
2015,09,22,21,13,12.20
2015,09,22,21,14,12.20
2015,09,22,21,15,12.20
2015,09,22,21,16,12.20
2015,09,22,21,17,12.20
2015,09,22,21,18,12.20
2015,09,22,21,19,12.20
2015,09,22,21,20,12.10
2015,09,22,21,21,12.20
2015,09,22,21,22,12.20
2015,09,22,21,23,12.20
2015,09,22,21,24,12.20
2015,09,22,21,25,12.20
2015,09,22,21,26,12.20
2015,09,22,21,27,12.30
2015,09,22,21,28,12.30
2015,09,22,21,29,12.30
2015,09,22,21,30,12.30
2015,09,22,21,31,12.30
2015,09,22,21,32,12.30
2015,09,22,21,33,12.30
2015,09,22,21,34,12.30
2015,09,22,21,35,12.30
2015,09,22,21,36,12.30
2015,09,22,21,37,12.30
2015,09,22,21,38,12.30
2015,09,22,21,39,12.30
2015,09,22,21,40,12.20
2015,09,22,21,41,12.20
2015,09,22,21,42,12.20
2015,09,22,21,43,12.20
2015,09,22,21,44,12.10
2015,09,22,21,45,12.10
2015,09,22,21,46,12.10
2015,09,22,21,47,12.10
2015,09,22,21,48,12.10
2015,09,22,21,49,12.10
2015,09,22,21,50,12.10
2015,09,22,21,51,12.10
2015,09,22,21,52,12.10
2015,09,22,21,53,12.10
2015,09,22,21,54,12.00
2015,09,22,21,55,12.00
2015,09,22,21,56,12.00
2015,09,22,21,57,11.90
2015,09,22,21,58,11.90
2015,09,22,21,59,11.90
2015,09,22,22,00,11.90
2015,09,22,22,01,11.80
2015,09,22,22,02,11.80
2015,09,22,22,03,11.80
2015,09,22,22,04,11.80
2015,09,22,22,05,11.80
2015,09,22,22,06,11.70
2015,09,22,22,07,11.70
2015,09,22,22,08,11.70
2015,09,22,22,09,11.70
2015,09,22,22,10,11.70
2015,09,22,22,11,11.70
2015,09,22,22,12,11.70
2015,09,22,22,13,11.60
2015,09,22,22,14,11.60
2015,09,22,22,15,11.60
2015,09,22,22,16,11.60
2015,09,22,22,17,11.60
2015,09,22,22,18,11.60
2015,09,22,22,19,11.60
2015,09,22,22,20,11.60
2015,09,22,22,21,11.50
2015,09,22,22,22,11.50
2015,09,22,22,23,11.50
2015,09,22,22,24,11.50
2015,09,22,22,25,11.50
2015,09,22,22,26,11.50
2015,09,22,22,27,11.50
2015,09,22,22,28,11.40
2015,09,22,22,29,11.40
2015,09,22,22,30,11.40
2015,09,22,22,31,11.40
2015,09,22,22,32,11.40
2015,09,22,22,33,11.40
2015,09,22,22,34,11.40
2015,09,22,22,35,11.40
2015,09,22,22,36,11.40
2015,09,22,22,37,11.40
2015,09,22,22,38,11.40
2015,09,22,22,39,11.40
2015,09,22,22,40,11.40
2015,09,22,22,41,11.40
2015,09,22,22,42,11.40
2015,09,22,22,43,11.40
2015,09,22,22,44,11.40
2015,09,22,22,45,11.40
2015,09,22,22,46,11.40
2015,09,22,22,47,11.40
2015,09,22,22,48,11.40
2015,09,22,22,49,11.40
2015,09,22,22,50,11.40
2015,09,22,22,51,11.40
2015,09,22,22,52,11.40
2015,09,22,22,53,11.40
2015,09,22,22,54,11.40
2015,09,22,22,55,11.40
2015,09,22,22,56,11.40
2015,09,22,22,57,11.40
2015,09,22,22,58,11.40
2015,09,22,22,59,11.40
2015,09,22,23,00,11.40
2015,09,22,23,01,11.40
2015,09,22,23,02,11.40
2015,09,22,23,03,11.40
2015,09,22,23,04,11.30
2015,09,22,23,05,11.30
2015,09,22,23,06,11.30
2015,09,22,23,07,11.30
2015,09,22,23,08,11.30
2015,09,22,23,09,11.30
2015,09,22,23,10,11.30
2015,09,22,23,11,11.30
2015,09,22,23,12,11.30
2015,09,22,23,13,11.30
2015,09,22,23,14,11.30
2015,09,22,23,15,11.30
2015,09,22,23,16,11.30
2015,09,22,23,17,11.30
2015,09,22,23,18,11.30
2015,09,22,23,19,11.30
2015,09,22,23,20,11.30
2015,09,22,23,21,11.30
2015,09,22,23,22,11.30
2015,09,22,23,23,11.30
2015,09,22,23,24,11.30
2015,09,22,23,25,11.30
2015,09,22,23,26,11.20
2015,09,22,23,27,11.20
2015,09,22,23,28,11.20
2015,09,22,23,29,11.20
2015,09,22,23,30,11.20
2015,09,22,23,31,11.20
2015,09,22,23,32,11.20
2015,09,22,23,33,11.20
2015,09,22,23,34,11.20
2015,09,22,23,35,11.20
2015,09,22,23,36,11.20
2015,09,22,23,37,11.20
2015,09,22,23,38,11.20
2015,09,22,23,39,11.20
2015,09,22,23,40,11.20
2015,09,22,23,41,11.20
2015,09,22,23,42,11.20
2015,09,22,23,43,11.20
2015,09,22,23,44,11.30
2015,09,22,23,45,11.30
2015,09,22,23,46,11.30
2015,09,22,23,47,11.40
2015,09,22,23,48,11.40
2015,09,22,23,49,11.50
2015,09,22,23,50,11.60
2015,09,22,23,51,11.60
2015,09,22,23,52,11.60
2015,09,22,23,53,11.70
2015,09,22,23,54,11.70
2015,09,22,23,55,11.80
2015,09,22,23,56,11.80
2015,09,22,23,57,11.90
2015,09,22,23,58,11.90
2015,09,22,23,59,11.90
